Volver al catálogo

ORBCOMM FM 31

ActivoComunicacionesLEO
NORAD 25981·PAYLOAD·🇺🇸 United States

Lanzado Dec 4, 1999 desde Cape Canaveral Space Force Station

Loading…

Próximos Pases (próximas 24 horas)

TLE

ActualizadoSource: Space-Track

Época: Sep 14, 2026, 08:09 UTC

1 25981U 99065B   26257.34020867  .00000448  00000-0  19266-3 0  9999
2 25981  45.0221  91.6173 0004225 142.6769 217.4373 14.38172287399366

Sigue ORBCOMM FM 31 en tiempo real con AllMySat

Download on the App Store